Location: Red Rock Farm
(35.2100°N, 97.2200°W)
Time: 10:32:47
(UTC-05:00)

ISS - All Passes

Search period start: 27 September 2016 00:00
Search period end: 07 October 2016 00:00
Orbit: 400 x 410 km, 51.6° (Epoch: 28 September)

Date Brightness Start Highest point End Pass type
(mag) Time Alt. Az. Time Alt. Az. Time Alt. Az.
27 Sep - 03:52:09 10° NNW 03:55:06 29° NE 03:58:02 10° E night (unlit)
27 Sep - 05:28:51 10° WNW 05:31:28 22° SW 05:34:04 10° S visible
27 Sep - 20:29:39 10° SSW 20:32:47 49° SE 20:35:58 10° ENE visible
27 Sep - 22:07:14 10° WNW 22:09:28 17° NNW 22:11:43 10° NNE visible
28 Sep - 03:00:33 10° NNW 03:02:53 18° NNE 03:05:13 10° ENE night (unlit)
28 Sep - 04:36:22 10° WNW 04:39:32 46° SW 04:42:42 10° SSE night (unlit)
28 Sep - 19:38:15 10° S 19:40:52 22° SE 19:43:29 10° ENE visible
28 Sep - 21:14:23 10° W 21:17:14 28° NW 21:20:07 10° NNE visible
29 Sep - 02:09:20 10° N 02:10:33 12° NNE 02:11:48 10° NE night (unlit)
29 Sep - 03:44:14 10° NW 03:47:31 78° NE 03:50:48 10° SE night (unlit)
29 Sep - 18:48:05 10° SE 18:49:00 11° SE 18:49:54 10° ESE daylight
29 Sep - 20:21:55 10° WSW 20:25:05 54° NW 20:28:18 10° NE visible
30 Sep - 02:52:18 10° NNW 02:55:24 37° NE 02:58:29 10° ESE night (unlit)
30 Sep - 04:29:28 10° W 04:31:40 17° SW 04:33:51 10° S night (unlit)
30 Sep - 19:29:48 10° SW 19:33:01 67° SE 19:36:15 10° NE daylight
30 Sep - 21:07:55 10° WNW 21:09:48 14° NNW 21:11:42 10° N visible
01 Oct - 02:00:35 10° NNW 02:03:11 21° NNE 02:05:46 10° E night (unlit)
01 Oct - 03:36:42 10° WNW 03:39:44 34° SW 03:42:45 10° SSE night (unlit)
01 Oct - 18:38:09 10° SSW 18:41:01 29° SE 18:43:54 10° ENE daylight
01 Oct - 20:14:50 10° W 20:17:30 23° NNW 20:20:11 10° NNE visible
02 Oct - 01:09:08 10° N 01:10:51 13° NNE 01:12:36 10° ENE night (unlit)
02 Oct - 02:44:26 10° NW 02:47:42 79° SW 02:50:58 10° SE night (unlit)
02 Oct - 17:47:14 10° SSE 17:49:05 14° SE 17:50:56 10° E daylight
02 Oct - 19:22:11 10° WSW 19:25:16 41° NW 19:28:23 10° NE daylight
03 Oct - 01:52:24 10° NW 01:55:35 48° NE 01:58:46 10° ESE night (unlit)
03 Oct - 03:30:12 10° W 03:31:44 13° SW 03:33:17 10° SSW night (unlit)
03 Oct - 18:29:54 10° SW 18:33:08 89° NW 18:36:23 10° NE daylight
03 Oct - 20:08:35 10° NW 20:10:02 12° NNW 20:11:29 10° N visible
04 Oct - 01:00:33 10° NNW 01:03:22 25° NE 01:06:10 10° E night (unlit)
04 Oct - 02:37:00 10° WNW 02:39:48 26° SW 02:42:35 10° S night (unlit)
04 Oct - 17:38:01 10° SSW 17:41:04 39° SE 17:44:08 10° ENE daylight
04 Oct - 19:15:15 10° W 19:17:39 19° NNW 19:20:05 10° NNE daylight
05 Oct - 00:08:56 10° N 00:11:02 16° NNE 00:13:08 10° ENE night (unlit)
05 Oct - 01:44:33 10° NW 01:47:46 57° SW 01:50:58 10° SE night (unlit)
05 Oct - 16:46:43 10° S 16:49:04 19° SE 16:51:26 10° E daylight
05 Oct - 18:22:23 10° WSW 18:25:22 32° NW 18:28:21 10° NNE daylight
05 Oct - 23:18:00 10° NNE 23:18:37 10° NNE 23:19:14 10° NE night (unlit)
06 Oct - 00:52:23 10° NW 00:55:38 63° NE 00:58:53 10° ESE night (unlit)
06 Oct - 17:29:56 10° SW 17:33:08 67° NW 17:36:23 10° NE daylight
06 Oct - 19:09:24 10° NW 19:10:09 11° NNW 19:10:56 10° N daylight
